{"data":{"norad_id":52912,"epoch":"2026-05-25T03:12:47.981088Z","epoch_age_seconds":63719,"freshness":"FRESH","line1":"1 52912U 22069A   26145.13388867  .00001237  00000+0  17025-3 0  9990","line2":"2 52912  97.8304  33.5822 0001013 111.7101 248.4219 14.79993294211205","mean_motion":14.79993294,"eccentricity":0.0001013,"inclination_deg":97.8304,"raan_deg":33.5822,"arg_perigee_deg":111.7101,"mean_anomaly_deg":248.4219,"bstar":0.00017025,"rev_number":21120,"period_min":97.297738161238,"perigee_km":628.63544446239,"apogee_km":630.05516037686,"semimajor_km":7007.4823024196,"source":"CELESTRAK","updated_at":"2026-05-25T13:38:12.835108Z"}}